Cyclone, PA

6:33 AM EST on February 08, 2016 (GMT -0500)
Bradford Regional

Weather History for KBFD - December, 2012

Change the Weather History Date:

Thursday, December 6, 2012

  Actual Average Record
Temperature  
Mean Temperature 32 °F 29 °F  
Max Temperature 44 °F 36 °F 64 °F (1998)
Min Temperature 21 °F 22 °F -4 °F (2007)
Degree Days  
Heating Degree Days 32 31  
Month to date heating degree days 183  
Since 1 July heating degree days 2018  
Cooling Degree Days 0 0  
Month to date cooling degree days 0  
Year to date cooling degree days 193  
Moisture  
Dew Point 16 °F    
Average Humidity 53    
Maximum Humidity 75    
Minimum Humidity 26    
Precipitation  
Precipitation 0.00 in 0.12 in 0.85 in (1962)
Month to date precipitation 0.71  
Year to date precipitation 41.77  
Sea Level Pressure  
Sea Level Pressure 30.23 in    
Wind  
Wind Speed 5 mph (ESE)    
Max Wind Speed 12 mph    
Max Gust Speed -    
Visibility 10 miles    
Events      
T = Trace of Precipitation, MM = Missing Value Source: NWS Daily Summary

Daily Weather History Graph

Daily Weather History Graph

Search for Another Location

Airport or City:

Trip Planner

Search our weather history database for the weather conditions in past years. The results will help you decide how hot, cold, wet, or windy it might be!

Date:

Astronomy

Dec. 06, 2012 Rise Set
Actual Time 7:27 AM EST 4:43 PM EST
Civil Twilight 6:56 AM EST 5:15 PM EST
Nautical Twilight 6:21 AM EST 5:49 PM EST
Astronomical Twilight 5:48 AM EST 6:23 PM EST
Moon No Moon Rise 12:14 PM EST (12/6)
Length of Visible Light 10h 18m
Length of Day
9h 15m
Waning Gibbous, 49% of the Moon is Illuminated
Dec 6
Waning Gibbous
Dec 13
New
Dec 20
First Quarter
Dec 28
Full
Jan 4
Last Quarter

Hourly Weather History & Observations

Time (EST) Temp. Windchill Dew Point Humidity Pressure Visibility Wind Dir Wind Speed Gust Speed Precip Events Conditions
12:53 AM 28.0 °F - 17.1 °F 63% 30.34 in 10.0 mi Calm Calm - N/A   Overcast
1:53 AM 28.0 °F 21.7 °F 17.1 °F 63% 30.35 in 10.0 mi WNW 5.8 mph - N/A   Overcast
2:53 AM 27.0 °F 21.6 °F 17.1 °F 66% 30.35 in 10.0 mi North 4.6 mph - N/A   Overcast
3:45 AM 27.0 °F 21.6 °F 16.0 °F 63% 30.28 in 10.0 mi NE 4.6 mph - N/A   Overcast
3:53 AM 26.1 °F 18.4 °F 16.0 °F 66% 30.34 in 10.0 mi NE 6.9 mph - N/A   Overcast
4:38 AM 25.0 °F 18.1 °F 16.0 °F 69% 30.25 in 10.0 mi East 5.8 mph - N/A   Scattered Clouds
4:53 AM 25.0 °F 18.1 °F 16.0 °F 69% 30.31 in 10.0 mi ENE 5.8 mph - N/A   Clear
5:53 AM 24.1 °F 18.2 °F 15.1 °F 69% 30.32 in 10.0 mi East 4.6 mph - N/A   Clear
6:53 AM 21.9 °F 17.2 °F 15.1 °F 75% 30.33 in 10.0 mi East 3.5 mph - N/A   Clear
7:53 AM 23.0 °F 17.0 °F 15.1 °F 72% 30.32 in 10.0 mi SE 4.6 mph - N/A   Clear
8:53 AM 24.1 °F 18.2 °F 16.0 °F 71% 30.33 in 10.0 mi ESE 4.6 mph - N/A   Clear
9:53 AM 28.9 °F 21.9 °F 18.0 °F 64% 30.31 in 10.0 mi SE 6.9 mph - N/A   Clear
10:53 AM 34.0 °F 28.0 °F 18.0 °F 52% 30.28 in 10.0 mi ESE 6.9 mph - N/A   Clear
11:53 AM 37.9 °F 32.1 °F 17.1 °F 43% 30.24 in 10.0 mi SE 8.1 mph - N/A   Clear
12:53 PM 42.1 °F 36.6 °F 12.9 °F 31% 30.20 in 10.0 mi South 9.2 mph - N/A   Clear
1:53 PM 44.1 °F 38.6 °F 10.9 °F 26% 30.17 in 10.0 mi SE 10.4 mph - N/A   Clear
2:53 PM 44.1 °F 39.0 °F 12.9 °F 28% 30.16 in 10.0 mi SE 9.2 mph - N/A   Clear
3:53 PM 42.1 °F 37.1 °F 14.0 °F 32% 30.16 in 10.0 mi SSE 8.1 mph - N/A   Clear
4:53 PM 39.0 °F 32.3 °F 15.1 °F 38% 30.15 in 10.0 mi SSE 10.4 mph - N/A   Clear
5:53 PM 36.0 °F 29.6 °F 16.0 °F 44% 30.14 in 10.0 mi SE 8.1 mph - N/A   Clear
6:53 PM 37.0 °F 29.3 °F 15.1 °F 41% 30.13 in 10.0 mi SE 11.5 mph - N/A   Clear
7:53 PM 36.0 °F 32.1 °F 15.1 °F 43% 30.14 in 10.0 mi SSE 4.6 mph - N/A   Clear
8:53 PM 35.1 °F 27.9 °F 17.1 °F 48% 30.13 in 10.0 mi SE 9.2 mph - N/A   Clear
9:53 PM 35.1 °F 28.6 °F 18.0 °F 50% 30.12 in 10.0 mi SSE 8.1 mph - N/A   Clear
10:53 PM 34.0 °F 27.2 °F 18.0 °F 52% 30.09 in 10.0 mi SE 8.1 mph - N/A   Clear
11:53 PM 35.1 °F 28.6 °F 19.0 °F 52% 30.07 in 10.0 mi SE 8.1 mph - N/A   Clear